Time,TemperatureF,DewpointF,PressureIn,WindDirection,WindDirectionDegrees,WindSpeedMPH,WindSpeedGustMPH,Humidity,HourlyPrecipIn,Conditions,Clouds,dailyrainin,SoftwareType,DateUTC
2013-05-10 00:01:00,75.5,73.7,30.15,East,101,0.0,0.0,94,0.00,,,0.00,Wunderground v.1.15,2013-05-10 04:01:00,
2013-05-10 00:03:00,75.6,73.8,30.15,East,101,0.0,0.0,94,0.00,,,0.00,Wunderground v.1.15,2013-05-10 04:03:00,
2013-05-10 00:04:00,75.6,73.8,30.15,East,101,0.0,0.0,94,0.00,,,0.00,Wunderground v.1.15,2013-05-10 04:04:00,
2013-05-10 00:06:00,75.6,73.8,30.15,East,101,0.0,0.0,94,0.00,,,0.00,Wunderground v.1.15,2013-05-10 04:06:00,
2013-05-10 00:08:00,75.7,73.8,30.15,East,101,0.0,0.0,94,0.00,,,0.00,Wunderground v.1.15,2013-05-10 04:08:00,
2013-05-10 00:13:00,75.8,73.9,30.15,East,101,0.0,0.0,94,0.00,,,0.00,Wunderground v.1.15,2013-05-10 04:13:00,
2013-05-10 00:18:00,75.8,73.9,30.15,East,101,0.0,0.0,94,0.00,,,0.00,Wunderground v.1.15,2013-05-10 04:18:00,
2013-05-10 00:24:00,75.7,73.5,30.14,East,101,0.0,0.0,93,0.00,,,0.00,Wunderground v.1.15,2013-05-10 04:24:00,
2013-05-10 00:29:00,75.7,73.8,30.14,East,100,0.0,0.0,94,0.00,,,0.00,Wunderground v.1.15,2013-05-10 04:29:00,
2013-05-10 00:34:00,75.7,73.8,30.14,East,101,0.0,0.0,94,0.00,,,0.00,Wunderground v.1.15,2013-05-10 04:34:00,
2013-05-10 00:40:00,75.9,74.0,30.14,East,100,0.0,0.0,94,0.00,,,0.00,Wunderground v.1.15,2013-05-10 04:40:00,
2013-05-10 00:45:00,75.9,74.0,30.14,East,100,0.0,0.0,94,0.00,,,0.00,Wunderground v.1.15,2013-05-10 04:45:00,
2013-05-10 00:51:00,75.7,73.8,30.14,East,101,0.0,0.0,94,0.00,,,0.00,Wunderground v.1.15,2013-05-10 04:51:00,
2013-05-10 00:56:00,75.5,73.7,30.14,East,101,0.0,0.0,94,0.00,,,0.00,Wunderground v.1.15,2013-05-10 04:56:00,
2013-05-10 01:01:00,75.4,73.6,30.14,East,101,0.0,0.0,94,0.00,,,0.00,Wunderground v.1.15,2013-05-10 05:01:00,
2013-05-10 01:06:00,75.3,73.5,30.14,East,101,0.0,0.0,94,0.00,,,0.00,Wunderground v.1.15,2013-05-10 05:06:00,
2013-05-10 01:12:00,75.3,73.8,30.14,East,100,0.0,0.0,95,0.00,,,0.00,Wunderground v.1.15,2013-05-10 05:12:00,
2013-05-10 01:18:00,75.3,73.8,30.14,East,101,0.0,0.0,95,0.00,,,0.00,Wunderground v.1.15,2013-05-10 05:18:00,
2013-05-10 01:24:00,75.4,73.9,30.13,East,100,0.0,0.0,95,0.00,,,0.00,Wunderground v.1.15,2013-05-10 05:24:00,
2013-05-10 01:30:00,75.3,73.8,30.13,East,101,0.0,0.0,95,0.00,,,0.00,Wunderground v.1.15,2013-05-10 05:30:00,
2013-05-10 01:36:00,75.2,73.7,30.12,East,101,0.0,0.0,95,0.00,,,0.00,Wunderground v.1.15,2013-05-10 05:36:00,
2013-05-10 01:41:00,75.0,73.5,30.12,East,100,0.0,0.0,95,0.00,,,0.00,Wunderground v.1.15,2013-05-10 05:41:00,
2013-05-10 01:46:00,75.0,73.5,30.11,East,101,0.0,0.0,95,0.00,,,0.00,Wunderground v.1.15,2013-05-10 05:46:00,
2013-05-10 01:52:00,75.0,73.5,30.11,East,101,0.0,0.0,95,0.00,,,0.00,Wunderground v.1.15,2013-05-10 05:52:00,
2013-05-10 01:57:00,74.9,73.4,30.11,East,100,0.0,0.0,95,0.00,,,0.00,Wunderground v.1.15,2013-05-10 05:57:00,
2013-05-10 02:02:00,74.7,73.2,30.11,East,101,0.0,0.0,95,0.00,,,0.00,Wunderground v.1.15,2013-05-10 06:02:00,
2013-05-10 02:07:00,74.7,73.2,30.11,East,100,0.0,0.0,95,0.00,,,0.00,Wunderground v.1.15,2013-05-10 06:07:00,
2013-05-10 02:12:00,74.6,73.1,30.10,East,101,0.0,0.0,95,0.00,,,0.00,Wunderground v.1.15,2013-05-10 06:12:00,
2013-05-10 02:17:00,74.6,73.1,30.10,East,101,0.0,0.0,95,0.00,,,0.00,Wunderground v.1.15,2013-05-10 06:17:00,
2013-05-10 02:22:00,74.6,73.4,30.10,East,100,0.0,0.0,96,0.00,,,0.00,Wunderground v.1.15,2013-05-10 06:22:00,
2013-05-10 02:27:00,74.6,73.4,30.10,East,101,0.0,0.0,96,0.00,,,0.00,Wunderground v.1.15,2013-05-10 06:27:00,
2013-05-10 02:32:00,74.7,73.5,30.11,East,100,0.0,0.0,96,0.00,,,0.00,Wunderground v.1.15,2013-05-10 06:32:00,
2013-05-10 02:37:00,74.8,73.6,30.10,East,101,0.0,0.0,96,0.00,,,0.00,Wunderground v.1.15,2013-05-10 06:37:00,
2013-05-10 02:42:00,74.8,73.6,30.10,East,100,0.0,0.0,96,0.00,,,0.00,Wunderground v.1.15,2013-05-10 06:42:00,
2013-05-10 02:47:00,75.0,73.8,30.10,East,101,0.0,0.0,96,0.00,,,0.00,Wunderground v.1.15,2013-05-10 06:47:00,
2013-05-10 02:52:00,75.2,74.0,30.10,East,101,0.0,0.0,96,0.00,,,0.00,Wunderground v.1.15,2013-05-10 06:52:00,
2013-05-10 02:57:00,75.2,74.0,30.10,East,101,0.0,0.0,96,0.00,,,0.00,Wunderground v.1.15,2013-05-10 06:57:00,
2013-05-10 03:02:00,75.2,74.0,30.10,East,100,0.0,0.0,96,0.00,,,0.00,Wunderground v.1.15,2013-05-10 07:02:00,
2013-05-10 03:07:00,75.2,74.0,30.10,East,101,0.0,0.0,96,0.00,,,0.00,Wunderground v.1.15,2013-05-10 07:07:00,
2013-05-10 03:12:00,75.0,73.5,30.10,East,101,0.0,0.0,95,0.00,,,0.00,Wunderground v.1.15,2013-05-10 07:12:00,
2013-05-10 03:17:00,74.7,72.9,30.09,ENE,75,0.0,1.0,94,0.00,,,0.00,Wunderground v.1.15,2013-05-10 07:17:00,
2013-05-10 03:22:00,74.3,72.5,30.09,ENE,73,0.0,1.0,94,0.00,,,0.00,Wunderground v.1.15,2013-05-10 07:22:00,
2013-05-10 03:27:00,74.1,71.9,30.09,ENE,74,0.0,1.0,93,0.00,,,0.00,Wunderground v.1.15,2013-05-10 07:27:00,
2013-05-10 03:32:00,74.0,71.8,30.08,ENE,74,0.0,0.0,93,0.00,,,0.00,Wunderground v.1.15,2013-05-10 07:32:00,
2013-05-10 03:37:00,73.9,71.7,30.09,ENE,74,0.0,0.0,93,0.00,,,0.00,Wunderground v.1.15,2013-05-10 07:37:00,
2013-05-10 03:42:00,73.7,71.5,30.09,ENE,73,0.0,0.0,93,0.00,,,0.00,Wunderground v.1.15,2013-05-10 07:42:00,
2013-05-10 03:47:00,73.6,71.4,30.09,ENE,74,0.0,0.0,93,0.00,,,0.00,Wunderground v.1.15,2013-05-10 07:47:00,
2013-05-10 03:52:00,73.6,71.4,30.10,ENE,73,0.0,0.0,93,0.00,,,0.00,Wunderground v.1.15,2013-05-10 07:52:00,
2013-05-10 03:57:00,73.4,71.3,30.09,ENE,64,0.0,1.0,93,0.00,,,0.00,Wunderground v.1.15,2013-05-10 07:57:00,
2013-05-10 04:02:00,73.3,71.2,30.09,East,84,0.0,1.0,93,0.00,,,0.00,Wunderground v.1.15,2013-05-10 08:02:00,
2013-05-10 04:07:00,73.4,70.9,30.09,ESE,106,4.0,4.0,92,0.00,,,0.00,Wunderground v.1.15,2013-05-10 08:07:00,
2013-05-10 04:13:00,73.6,70.5,30.09,East,89,0.0,3.0,90,0.00,,,0.00,Wunderground v.1.15,2013-05-10 08:13:00,
2013-05-10 04:18:00,73.6,69.8,30.09,East,98,4.0,5.0,88,0.00,,,0.00,Wunderground v.1.15,2013-05-10 08:18:00,
2013-05-10 04:23:00,73.5,69.1,30.08,East,85,0.0,1.0,86,0.00,,,0.00,Wunderground v.1.15,2013-05-10 08:23:00,
2013-05-10 04:28:00,73.5,69.1,30.09,East,96,0.0,1.0,86,0.00,,,0.00,Wunderground v.1.15,2013-05-10 08:28:00,
2013-05-10 04:33:00,73.5,69.1,30.09,East,101,4.0,6.0,86,0.00,,,0.00,Wunderground v.1.15,2013-05-10 08:33:00,
2013-05-10 04:38:00,73.5,69.1,30.09,ENE,77,1.0,6.0,86,0.00,,,0.00,Wunderground v.1.15,2013-05-10 08:38:00,
2013-05-10 04:43:00,73.3,68.9,30.08,ESE,108,0.0,4.0,86,0.00,,,0.00,Wunderground v.1.15,2013-05-10 08:43:00,
2013-05-10 04:48:00,73.0,68.9,30.09,ESE,116,0.0,4.0,87,0.00,,,0.00,Wunderground v.1.15,2013-05-10 08:48:00,
2013-05-10 04:54:00,72.8,68.7,30.09,East,99,0.0,2.0,87,0.00,,,0.00,Wunderground v.1.15,2013-05-10 08:54:00,
2013-05-10 04:59:00,72.7,68.9,30.09,East,83,4.0,4.0,88,0.00,,,0.00,Wunderground v.1.15,2013-05-10 08:59:00,
2013-05-10 05:04:00,72.8,68.7,30.09,East,89,0.0,6.0,87,0.00,,,0.00,Wunderground v.1.15,2013-05-10 09:04:00,
2013-05-10 05:09:00,72.9,68.5,30.09,ESE,117,6.0,6.0,86,0.00,,,0.00,Wunderground v.1.15,2013-05-10 09:09:00,
2013-05-10 05:14:00,73.0,68.6,30.09,East,96,2.0,6.0,86,0.00,,,0.00,Wunderground v.1.15,2013-05-10 09:14:00,
2013-05-10 05:19:00,73.0,68.9,30.09,East,94,1.0,6.0,87,0.00,,,0.00,Wunderground v.1.15,2013-05-10 09:19:00,
2013-05-10 05:24:00,72.9,69.1,30.09,ESE,122,1.0,5.0,88,0.00,,,0.00,Wunderground v.1.15,2013-05-10 09:24:00,
2013-05-10 05:29:00,72.8,69.0,30.09,SW,217,0.0,5.0,88,0.00,,,0.00,Wunderground v.1.15,2013-05-10 09:29:00,
2013-05-10 05:34:00,72.6,68.8,30.09,East,83,2.0,2.0,88,0.00,,,0.00,Wunderground v.1.15,2013-05-10 09:34:00,
2013-05-10 05:39:00,72.5,68.4,30.09,East,79,0.0,4.0,87,0.00,,,0.00,Wunderground v.1.15,2013-05-10 09:39:00,
2013-05-10 05:44:00,72.4,68.3,30.09,SSE,156,1.0,4.0,87,0.00,,,0.00,Wunderground v.1.15,2013-05-10 09:44:00,
2013-05-10 05:49:00,72.3,68.2,30.09,SE,131,1.0,4.0,87,0.00,,,0.00,Wunderground v.1.15,2013-05-10 09:49:00,
2013-05-10 05:54:00,72.2,68.1,30.09,ESE,122,0.0,1.0,87,0.00,,,0.00,Wunderground v.1.15,2013-05-10 09:54:00,
2013-05-10 05:59:00,72.2,68.1,30.09,SE,124,0.0,1.0,87,0.00,,,0.00,Wunderground v.1.15,2013-05-10 09:59:00,
2013-05-10 06:04:00,72.0,68.2,30.09,SE,125,0.0,1.0,88,0.00,,,0.00,Wunderground v.1.15,2013-05-10 10:04:00,
2013-05-10 06:09:00,71.9,68.2,30.09,East,95,0.0,1.0,88,0.00,,,0.00,Wunderground v.1.15,2013-05-10 10:09:00,
2013-05-10 06:14:00,71.8,68.4,30.09,East,94,0.0,0.0,89,0.00,,,0.00,Wunderground v.1.15,2013-05-10 10:14:00,
2013-05-10 06:19:00,71.7,68.3,30.08,East,95,0.0,0.0,89,0.00,,,0.00,Wunderground v.1.15,2013-05-10 10:19:00,
2013-05-10 06:24:00,71.6,68.2,30.09,East,94,0.0,0.0,89,0.00,,,0.00,Wunderground v.1.15,2013-05-10 10:24:00,
2013-05-10 06:29:00,71.4,68.0,30.09,ESE,102,0.0,0.0,89,0.00,,,0.00,Wunderground v.1.15,2013-05-10 10:29:00,
2013-05-10 06:34:00,71.3,68.2,30.09,ESE,103,0.0,0.0,90,0.00,,,0.00,Wunderground v.1.15,2013-05-10 10:34:00,
2013-05-10 06:39:00,71.2,68.1,30.08,ESE,103,0.0,0.0,90,0.00,,,0.00,Wunderground v.1.15,2013-05-10 10:39:00,
2013-05-10 06:44:00,71.0,67.9,30.09,ESE,103,0.0,0.0,90,0.00,,,0.00,Wunderground v.1.15,2013-05-10 10:44:00,
2013-05-10 06:49:00,71.0,67.9,30.09,ESE,105,0.0,0.0,90,0.00,,,0.00,Wunderground v.1.15,2013-05-10 10:49:00,
2013-05-10 06:54:00,71.0,68.2,30.09,ESE,108,0.0,0.0,91,0.00,,,0.00,Wunderground v.1.15,2013-05-10 10:54:00,
2013-05-10 06:59:00,71.0,67.9,30.09,ESE,108,0.0,0.0,90,0.00,,,0.00,Wunderground v.1.15,2013-05-10 10:59:00,
2013-05-10 07:04:00,71.1,68.3,30.09,ESE,108,0.0,0.0,91,0.00,,,0.00,Wunderground v.1.15,2013-05-10 11:04:00,
2013-05-10 07:09:00,71.4,68.6,30.09,ESE,108,0.0,0.0,91,0.00,,,0.00,Wunderground v.1.15,2013-05-10 11:09:00,
2013-05-10 07:14:00,71.8,68.7,30.09,ESE,109,0.0,0.0,90,0.00,,,0.00,Wunderground v.1.15,2013-05-10 11:14:00,
2013-05-10 07:19:00,72.5,69.4,30.10,ESE,108,0.0,0.0,90,0.00,,,0.00,Wunderground v.1.15,2013-05-10 11:19:00,
2013-05-10 07:24:00,73.2,69.4,30.09,ESE,108,0.0,0.0,88,0.00,,,0.00,Wunderground v.1.15,2013-05-10 11:24:00,
2013-05-10 07:29:00,74.0,69.5,30.10,East,90,0.0,0.0,86,0.00,,,0.00,Wunderground v.1.15,2013-05-10 11:29:00,
2013-05-10 07:34:00,74.4,69.9,30.09,East,91,0.0,0.0,86,0.00,,,0.00,Wunderground v.1.15,2013-05-10 11:34:00,
2013-05-10 07:39:00,74.5,69.7,30.09,East,92,0.0,0.0,85,0.00,,,0.00,Wunderground v.1.15,2013-05-10 11:39:00,
2013-05-10 07:44:00,74.6,70.1,30.10,East,92,0.0,0.0,86,0.00,,,0.00,Wunderground v.1.15,2013-05-10 11:44:00,
2013-05-10 07:49:00,74.6,70.1,30.09,East,91,0.0,0.0,86,0.00,,,0.00,Wunderground v.1.15,2013-05-10 11:49:00,
2013-05-10 07:54:00,74.8,70.0,30.10,East,93,0.0,1.0,85,0.00,,,0.00,Wunderground v.1.15,2013-05-10 11:54:00,
2013-05-10 07:59:00,75.1,70.3,30.10,East,101,0.0,1.0,85,0.00,,,0.00,Wunderground v.1.15,2013-05-10 11:59:00,
2013-05-10 08:04:00,75.8,71.0,30.09,East,87,0.0,1.0,85,0.00,,,0.00,Wunderground v.1.15,2013-05-10 12:04:00,
2013-05-10 08:09:00,76.8,71.6,30.09,SE,134,0.0,1.0,84,0.00,,,0.00,Wunderground v.1.15,2013-05-10 12:09:00,
2013-05-10 08:14:00,77.7,71.8,30.09,ESE,110,1.0,2.0,82,0.00,,,0.00,Wunderground v.1.15,2013-05-10 12:14:00,
2013-05-10 08:19:00,78.1,71.8,30.09,SSW,193,0.0,2.0,81,0.00,,,0.00,Wunderground v.1.15,2013-05-10 12:19:00,
2013-05-10 08:24:00,78.9,72.6,30.09,East,101,0.0,2.0,81,0.00,,,0.00,Wunderground v.1.15,2013-05-10 12:24:00,
2013-05-10 08:29:00,79.5,72.8,30.10,East,93,0.0,2.0,80,0.00,,,0.00,Wunderground v.1.15,2013-05-10 12:29:00,
2013-05-10 08:34:00,79.8,73.1,30.10,ESE,116,3.0,5.0,80,0.00,,,0.00,Wunderground v.1.15,2013-05-10 12:34:00,
2013-05-10 08:39:00,80.0,73.6,30.10,ENE,61,0.0,5.0,81,0.00,,,0.00,Wunderground v.1.15,2013-05-10 12:39:00,
2013-05-10 08:44:00,80.2,74.2,30.11,NNE,22,0.0,4.0,82,0.00,,,0.00,Wunderground v.1.15,2013-05-10 12:44:00,
2013-05-10 08:49:00,80.5,74.1,30.11,East,96,0.0,5.0,81,0.00,,,0.00,Wunderground v.1.15,2013-05-10 12:49:00,
2013-05-10 08:54:00,80.9,74.1,30.11,SE,127,0.0,4.0,80,0.00,,,0.00,Wunderground v.1.15,2013-05-10 12:54:00,
2013-05-10 08:59:00,81.0,74.2,30.11,East,91,3.0,5.0,80,0.00,,,0.00,Wunderground v.1.15,2013-05-10 12:59:00,
2013-05-10 09:04:00,81.3,74.2,30.11,East,93,1.0,6.0,79,0.00,,,0.00,Wunderground v.1.15,2013-05-10 13:04:00,
2013-05-10 09:09:00,81.8,75.0,30.12,ESE,105,1.0,6.0,80,0.00,,,0.00,Wunderground v.1.15,2013-05-10 13:09:00,
2013-05-10 09:14:00,82.5,75.3,30.12,East,87,4.0,6.0,79,0.00,,,0.00,Wunderground v.1.15,2013-05-10 13:14:00,
2013-05-10 09:19:00,82.5,74.9,30.11,SW,236,0.0,6.0,78,0.00,,,0.00,Wunderground v.1.15,2013-05-10 13:19:00,
2013-05-10 09:24:00,82.7,75.1,30.11,ESE,118,0.0,4.0,78,0.00,,,0.00,Wunderground v.1.15,2013-05-10 13:24:00,
2013-05-10 09:29:00,82.8,74.5,30.11,East,101,2.0,7.0,76,0.00,,,0.00,Wunderground v.1.15,2013-05-10 13:29:00,
2013-05-10 09:34:00,83.0,74.6,30.11,East,98,4.0,6.0,76,0.00,,,0.00,Wunderground v.1.15,2013-05-10 13:34:00,
2013-05-10 09:39:00,82.6,74.3,30.11,SE,125,5.0,9.0,76,0.00,,,0.00,Wunderground v.1.15,2013-05-10 13:39:00,
2013-05-10 09:44:00,81.5,72.8,30.11,SE,129,3.0,9.0,75,0.00,,,0.00,Wunderground v.1.15,2013-05-10 13:44:00,
2013-05-10 09:49:00,80.9,72.2,30.12,ENE,75,0.0,9.0,75,0.00,,,0.00,Wunderground v.1.15,2013-05-10 13:49:00,
2013-05-10 09:54:00,81.4,72.7,30.11,South,184,0.0,8.0,75,0.00,,,0.00,Wunderground v.1.15,2013-05-10 13:54:00,
2013-05-10 09:59:00,82.4,73.7,30.12,ESE,102,0.0,8.0,75,0.00,,,0.00,Wunderground v.1.15,2013-05-10 13:59:00,
2013-05-10 10:04:00,82.9,73.4,30.12,East,89,0.0,6.0,73,0.00,,,0.00,Wunderground v.1.15,2013-05-10 14:04:00,
2013-05-10 10:09:00,83.2,73.6,30.12,East,79,1.0,6.0,73,0.00,,,0.00,Wunderground v.1.15,2013-05-10 14:09:00,
2013-05-10 10:14:00,83.6,74.4,30.12,East,90,1.0,4.0,74,0.00,,,0.00,Wunderground v.1.15,2013-05-10 14:14:00,
2013-05-10 10:19:00,83.5,74.3,30.12,ESE,111,6.0,6.0,74,0.00,,,0.00,Wunderground v.1.15,2013-05-10 14:19:00,
2013-05-10 10:24:00,83.9,74.7,30.12,SW,229,0.0,4.0,74,0.00,,,0.00,Wunderground v.1.15,2013-05-10 14:24:00,
2013-05-10 10:29:00,84.3,74.3,30.12,WSW,245,1.0,5.0,72,0.00,,,0.00,Wunderground v.1.15,2013-05-10 14:29:00,
2013-05-10 10:34:00,84.8,74.8,30.12,ESE,106,5.0,5.0,72,0.00,,,0.00,Wunderground v.1.15,2013-05-10 14:34:00,
2013-05-10 10:39:00,84.8,74.3,30.12,ESE,114,0.0,6.0,71,0.00,,,0.00,Wunderground v.1.15,2013-05-10 14:39:00,
2013-05-10 10:44:00,85.0,74.5,30.12,West,263,1.0,3.0,71,0.00,,,0.00,Wunderground v.1.15,2013-05-10 14:44:00,
2013-05-10 10:49:00,85.2,74.3,30.12,SSE,148,0.0,6.0,70,0.00,,,0.00,Wunderground v.1.15,2013-05-10 14:49:00,
2013-05-10 10:54:00,85.3,74.4,30.12,East,95,1.0,4.0,70,0.00,,,0.00,Wunderground v.1.15,2013-05-10 14:54:00,
2013-05-10 10:59:00,85.2,74.7,30.12,South,174,3.0,7.0,71,0.00,,,0.00,Wunderground v.1.15,2013-05-10 14:59:00,
2013-05-10 11:04:00,85.2,74.7,30.12,SSW,204,0.0,3.0,71,0.00,,,0.00,Wunderground v.1.15,2013-05-10 15:04:00,
2013-05-10 11:09:00,85.5,75.4,30.12,SW,222,0.0,3.0,72,0.00,,,0.00,Wunderground v.1.15,2013-05-10 15:09:00,
2013-05-10 11:14:00,85.7,74.4,30.12,SSW,212,0.0,4.0,69,0.00,,,0.00,Wunderground v.1.15,2013-05-10 15:14:00,
2013-05-10 11:19:00,85.9,75.0,30.12,ESE,107,0.0,7.0,70,0.00,,,0.00,Wunderground v.1.15,2013-05-10 15:19:00,
2013-05-10 11:24:00,86.0,74.6,30.12,ESE,122,0.0,2.0,69,0.00,,,0.00,Wunderground v.1.15,2013-05-10 15:24:00,
2013-05-10 11:29:00,86.5,74.2,30.11,ESE,109,5.0,5.0,67,0.00,,,0.00,Wunderground v.1.15,2013-05-10 15:29:00,
2013-05-10 11:34:00,86.6,73.9,30.11,SSE,165,0.0,5.0,66,0.00,,,0.00,Wunderground v.1.15,2013-05-10 15:34:00,
2013-05-10 11:39:00,86.8,74.1,30.11,East,94,4.0,4.0,66,0.00,,,0.00,Wunderground v.1.15,2013-05-10 15:39:00,
2013-05-10 11:44:00,86.4,72.8,30.11,East,97,2.0,7.0,64,0.00,,,0.00,Wunderground v.1.15,2013-05-10 15:44:00,
2013-05-10 11:50:00,86.7,73.5,30.11,ENE,58,0.0,2.0,65,0.00,,,0.00,Wunderground v.1.15,2013-05-10 15:50:00,
2013-05-10 11:55:00,87.2,73.1,30.11,East,101,3.0,4.0,63,0.00,,,0.00,Wunderground v.1.15,2013-05-10 15:55:00,
2013-05-10 12:00:00,87.4,73.7,30.10,East,89,1.0,1.0,64,0.00,,,0.00,Wunderground v.1.15,2013-05-10 16:00:00,
2013-05-10 12:05:00,87.7,74.5,30.10,SW,231,2.0,2.0,65,0.00,,,0.00,Wunderground v.1.15,2013-05-10 16:05:00,
2013-05-10 12:10:00,87.6,74.4,30.10,SW,228,0.0,0.0,65,0.00,,,0.00,Wunderground v.1.15,2013-05-10 16:10:00,
2013-05-10 12:15:00,88.1,74.4,30.10,ESE,104,4.0,5.0,64,0.00,,,0.00,Wunderground v.1.15,2013-05-10 16:15:00,
2013-05-10 12:20:00,88.4,73.2,30.10,East,89,0.0,1.0,61,0.00,,,0.00,Wunderground v.1.15,2013-05-10 16:20:00,
2013-05-10 12:25:00,88.8,74.1,30.09,ESE,111,1.0,5.0,62,0.00,,,0.00,Wunderground v.1.15,2013-05-10 16:25:00,
2013-05-10 12:30:00,89.1,73.4,30.09,SE,124,0.0,1.0,60,0.00,,,0.00,Wunderground v.1.15,2013-05-10 16:30:00,
2013-05-10 12:35:00,89.4,73.2,30.09,ENE,68,2.0,6.0,59,0.00,,,0.00,Wunderground v.1.15,2013-05-10 16:35:00,
2013-05-10 12:40:00,89.5,74.3,30.09,East,90,4.0,4.0,61,0.00,,,0.00,Wunderground v.1.15,2013-05-10 16:40:00,
2013-05-10 12:45:00,89.4,73.2,30.09,ENE,69,0.0,6.0,59,0.00,,,0.00,Wunderground v.1.15,2013-05-10 16:45:00,
2013-05-10 12:50:00,89.3,73.1,30.09,ESE,111,3.0,4.0,59,0.00,,,0.00,Wunderground v.1.15,2013-05-10 16:50:00,
2013-05-10 12:55:00,89.5,73.3,30.09,ESE,109,0.0,6.0,59,0.00,,,0.00,Wunderground v.1.15,2013-05-10 16:55:00,
2013-05-10 13:00:00,89.1,72.9,30.09,East,79,3.0,3.0,59,0.00,,,0.00,Wunderground v.1.15,2013-05-10 17:00:00,
2013-05-10 13:05:00,89.0,72.8,30.08,South,186,1.0,7.0,59,0.00,,,0.00,Wunderground v.1.15,2013-05-10 17:05:00,
2013-05-10 13:10:00,89.0,72.3,30.08,SW,236,5.0,6.0,58,0.00,,,0.00,Wunderground v.1.15,2013-05-10 17:10:00,
2013-05-10 13:15:00,88.9,72.7,30.08,ESE,119,3.0,6.0,59,0.00,,,0.00,Wunderground v.1.15,2013-05-10 17:15:00,
2013-05-10 13:20:00,89.0,73.3,30.08,ENE,72,0.0,4.0,60,0.00,,,0.00,Wunderground v.1.15,2013-05-10 17:20:00,
2013-05-10 13:25:00,88.9,73.7,30.08,East,83,2.0,8.0,61,0.00,,,0.00,Wunderground v.1.15,2013-05-10 17:25:00,
2013-05-10 13:30:00,88.8,72.6,30.09,East,100,7.0,9.0,59,0.00,,,0.00,Wunderground v.1.15,2013-05-10 17:30:00,
2013-05-10 13:35:00,88.3,72.7,30.09,East,90,3.0,9.0,60,0.00,,,0.00,Wunderground v.1.15,2013-05-10 17:35:00,
2013-05-10 13:40:00,88.5,73.3,30.09,ESE,108,4.0,5.0,61,0.00,,,0.00,Wunderground v.1.15,2013-05-10 17:40:00,
2013-05-10 13:45:00,88.6,73.4,30.08,ENE,60,2.0,8.0,61,0.00,,,0.00,Wunderground v.1.15,2013-05-10 17:45:00,
2013-05-10 13:50:00,88.4,72.7,30.08,East,93,0.0,6.0,60,0.00,,,0.00,Wunderground v.1.15,2013-05-10 17:50:00,
2013-05-10 13:55:00,88.4,73.2,30.09,ESE,111,4.0,8.0,61,0.00,,,0.00,Wunderground v.1.15,2013-05-10 17:55:00,
2013-05-10 14:01:00,88.5,73.3,30.09,SE,141,3.0,3.0,61,0.00,,,0.00,Wunderground v.1.15,2013-05-10 18:01:00,
2013-05-10 14:06:00,88.2,73.0,30.08,ENE,76,8.0,8.0,61,0.00,,,0.00,Wunderground v.1.15,2013-05-10 18:06:00,
2013-05-10 14:11:00,88.1,73.4,30.09,East,79,4.0,4.0,62,0.00,,,0.00,Wunderground v.1.15,2013-05-10 18:11:00,
2013-05-10 14:16:00,87.9,72.8,30.09,ESE,116,2.0,8.0,61,0.00,,,0.00,Wunderground v.1.15,2013-05-10 18:16:00,
2013-05-10 14:21:00,87.7,72.6,30.09,SE,133,0.0,4.0,61,0.00,,,0.00,Wunderground v.1.15,2013-05-10 18:21:00,
2013-05-10 14:26:00,88.0,72.9,30.08,NNE,13,5.0,11.0,61,0.00,,,0.00,Wunderground v.1.15,2013-05-10 18:26:00,
2013-05-10 14:31:00,87.7,72.1,30.08,SSW,198,4.0,10.0,60,0.00,,,0.00,Wunderground v.1.15,2013-05-10 18:31:00,
2013-05-10 14:36:00,87.7,72.6,30.08,SSE,159,2.0,10.0,61,0.00,,,0.00,Wunderground v.1.15,2013-05-10 18:36:00,
2013-05-10 14:41:00,88.0,72.9,30.08,ESE,111,6.0,6.0,61,0.00,,,0.00,Wunderground v.1.15,2013-05-10 18:41:00,
2013-05-10 14:46:00,88.0,73.8,30.07,East,96,5.0,9.0,63,0.00,,,0.00,Wunderground v.1.15,2013-05-10 18:46:00,
2013-05-10 14:51:00,88.1,73.4,30.07,East,93,2.0,8.0,62,0.00,,,0.00,Wunderground v.1.15,2013-05-10 18:51:00,
2013-05-10 14:56:00,87.9,73.3,30.07,ESE,114,5.0,9.0,62,0.00,,,0.00,Wunderground v.1.15,2013-05-10 18:56:00,
2013-05-10 15:01:00,88.2,73.0,30.07,SE,139,1.0,3.0,61,0.00,,,0.00,Wunderground v.1.15,2013-05-10 19:01:00,
2013-05-10 15:06:00,88.5,73.8,30.07,WSW,256,1.0,6.0,62,0.00,,,0.00,Wunderground v.1.15,2013-05-10 19:06:00,
2013-05-10 15:11:00,88.3,72.7,30.07,ENE,76,4.0,10.0,60,0.00,,,0.00,Wunderground v.1.15,2013-05-10 19:11:00,
2013-05-10 15:16:00,88.1,73.0,30.07,East,96,1.0,11.0,61,0.00,,,0.00,Wunderground v.1.15,2013-05-10 19:16:00,
2013-05-10 15:21:00,88.3,73.1,30.06,SE,129,2.0,3.0,61,0.00,,,0.00,Wunderground v.1.15,2013-05-10 19:21:00,
2013-05-10 15:26:00,88.8,74.1,30.07,East,79,0.0,6.0,62,0.00,,,0.00,Wunderground v.1.15,2013-05-10 19:26:00,
2013-05-10 15:31:00,88.8,73.6,30.07,East,86,2.0,5.0,61,0.00,,,0.00,Wunderground v.1.15,2013-05-10 19:31:00,
2013-05-10 15:36:00,88.9,73.7,30.06,South,188,2.0,6.0,61,0.00,,,0.00,Wunderground v.1.15,2013-05-10 19:36:00,
2013-05-10 15:41:00,89.1,74.4,30.06,SE,131,6.0,6.0,62,0.00,,,0.00,Wunderground v.1.15,2013-05-10 19:41:00,
2013-05-10 15:46:00,89.3,73.6,30.06,ENE,72,2.0,7.0,60,0.00,,,0.00,Wunderground v.1.15,2013-05-10 19:46:00,
2013-05-10 15:51:00,88.5,74.3,30.05,ESE,114,1.0,8.0,63,0.00,,,0.00,Wunderground v.1.15,2013-05-10 19:51:00,
2013-05-10 15:56:00,88.8,74.1,30.05,SW,229,1.0,8.0,62,0.00,,,0.00,Wunderground v.1.15,2013-05-10 19:56:00,
2013-05-10 16:01:00,88.7,73.5,30.05,East,101,2.0,7.0,61,0.00,,,0.00,Wunderground v.1.15,2013-05-10 20:01:00,
2013-05-10 16:06:00,88.4,74.2,30.05,East,88,1.0,8.0,63,0.00,,,0.00,Wunderground v.1.15,2013-05-10 20:06:00,
2013-05-10 16:11:00,87.3,74.1,30.05,SSE,162,0.0,8.0,65,0.00,,,0.00,Wunderground v.1.15,2013-05-10 20:11:00,
2013-05-10 16:16:00,86.8,74.1,30.04,ESE,114,1.0,8.0,66,0.00,,,0.00,Wunderground v.1.15,2013-05-10 20:16:00,
2013-05-10 16:21:00,86.4,73.2,30.04,SW,225,0.0,5.0,65,0.00,,,0.00,Wunderground v.1.15,2013-05-10 20:21:00,
2013-05-10 16:26:00,86.2,74.0,30.04,South,177,6.0,6.0,67,0.00,,,0.00,Wunderground v.1.15,2013-05-10 20:26:00,
2013-05-10 16:31:00,85.7,71.7,30.05,NNW,341,1.0,6.0,63,0.00,,,0.00,Wunderground v.1.15,2013-05-10 20:31:00,
2013-05-10 16:36:00,85.1,72.5,30.05,SE,132,0.0,6.0,66,0.00,,,0.00,Wunderground v.1.15,2013-05-10 20:36:00,
2013-05-10 16:41:00,84.6,72.4,30.04,ESE,116,6.0,6.0,67,0.00,,,0.00,Wunderground v.1.15,2013-05-10 20:41:00,
2013-05-10 16:46:00,84.4,73.1,30.04,ESE,105,4.0,7.0,69,0.00,,,0.00,Wunderground v.1.15,2013-05-10 20:46:00,
2013-05-10 16:51:00,83.9,73.1,30.04,SE,132,0.0,3.0,70,0.00,,,0.00,Wunderground v.1.15,2013-05-10 20:51:00,
2013-05-10 16:56:00,83.7,72.4,30.04,ESE,113,5.0,5.0,69,0.00,,,0.00,Wunderground v.1.15,2013-05-10 20:56:00,
2013-05-10 17:01:00,83.3,72.1,30.04,East,100,5.0,9.0,69,0.00,,,0.00,Wunderground v.1.15,2013-05-10 21:01:00,
2013-05-10 17:06:00,83.0,72.2,30.05,SE,134,2.0,9.0,70,0.00,,,0.00,Wunderground v.1.15,2013-05-10 21:06:00,
2013-05-10 17:11:00,82.9,72.5,30.06,East,98,1.0,2.0,71,0.00,,,0.00,Wunderground v.1.15,2013-05-10 21:11:00,
2013-05-10 17:16:00,82.7,72.3,30.07,East,91,0.0,7.0,71,0.00,,,0.00,Wunderground v.1.15,2013-05-10 21:16:00,
2013-05-10 17:21:00,82.7,72.7,30.06,SSW,212,0.0,3.0,72,0.00,,,0.00,Wunderground v.1.15,2013-05-10 21:21:00,
2013-05-10 17:26:00,82.5,72.6,30.06,West,276,0.0,4.0,72,0.00,,,0.00,Wunderground v.1.15,2013-05-10 21:26:00,
2013-05-10 17:31:00,82.3,72.4,30.05,SE,124,0.0,4.0,72,0.00,,,0.00,Wunderground v.1.15,2013-05-10 21:31:00,
2013-05-10 17:36:00,82.2,72.3,30.05,South,187,0.0,6.0,72,0.00,,,0.00,Wunderground v.1.15,2013-05-10 21:36:00,
2013-05-10 17:41:00,82.1,72.6,30.05,SSW,195,0.0,5.0,73,0.00,,,0.00,Wunderground v.1.15,2013-05-10 21:41:00,
2013-05-10 17:46:00,82.0,72.9,30.05,SW,225,1.0,5.0,74,0.00,,,0.00,Wunderground v.1.15,2013-05-10 21:46:00,
2013-05-10 17:51:00,82.0,72.9,30.05,West,266,0.0,2.0,74,0.00,,,0.00,Wunderground v.1.15,2013-05-10 21:51:00,
2013-05-10 17:56:00,81.9,72.8,30.05,SSE,162,0.0,4.0,74,0.00,,,0.00,Wunderground v.1.15,2013-05-10 21:56:00,
2013-05-10 17:58:00,81.9,72.8,30.04,SW,217,1.0,4.0,74,0.00,,,0.00,Wunderground v.1.15,2013-05-10 21:58:00,
2013-05-10 17:59:00,81.9,72.8,30.04,WNW,290,0.0,4.0,74,0.00,,,0.00,Wunderground v.1.15,2013-05-10 21:59:00,
2013-05-10 18:04:00,81.8,72.7,30.05,East,93,5.0,7.0,74,0.00,,,0.00,Wunderground v.1.15,2013-05-10 22:04:00,
2013-05-10 18:09:00,81.8,72.7,30.05,ESE,103,1.0,7.0,74,0.00,,,0.00,Wunderground v.1.15,2013-05-10 22:09:00,
2013-05-10 18:14:00,81.7,72.6,30.05,South,176,0.0,4.0,74,0.00,,,0.00,Wunderground v.1.15,2013-05-10 22:14:00,
2013-05-10 18:19:00,81.7,73.0,30.05,SW,236,0.0,4.0,75,0.00,,,0.00,Wunderground v.1.15,2013-05-10 22:19:00,
2013-05-10 18:24:00,81.6,71.7,30.06,SW,236,2.0,3.0,72,0.00,,,0.00,Wunderground v.1.15,2013-05-10 22:24:00,
2013-05-10 18:29:00,81.6,71.7,30.06,SW,216,1.0,5.0,72,0.00,,,0.00,Wunderground v.1.15,2013-05-10 22:29:00,
2013-05-10 18:34:00,81.6,71.7,30.06,ENE,70,1.0,4.0,72,0.00,,,0.00,Wunderground v.1.15,2013-05-10 22:34:00,
2013-05-10 18:39:00,81.6,72.1,30.06,South,174,1.0,4.0,73,0.00,,,0.00,Wunderground v.1.15,2013-05-10 22:39:00,
2013-05-10 18:44:00,81.6,72.5,30.06,NNE,30,0.0,1.0,74,0.00,,,0.00,Wunderground v.1.15,2013-05-10 22:44:00,
2013-05-10 18:49:00,81.7,73.0,30.06,SE,125,0.0,2.0,75,0.00,,,0.00,Wunderground v.1.15,2013-05-10 22:49:00,
2013-05-10 18:54:00,81.8,73.5,30.06,SSE,159,0.0,2.0,76,0.00,,,0.00,Wunderground v.1.15,2013-05-10 22:54:00,
2013-05-10 18:59:00,81.8,73.5,30.07,SSW,195,0.0,4.0,76,0.00,,,0.00,Wunderground v.1.15,2013-05-10 22:59:00,
2013-05-10 19:04:00,81.8,73.9,30.07,SW,222,0.0,3.0,77,0.00,,,0.00,Wunderground v.1.15,2013-05-10 23:04:00,
2013-05-10 19:09:00,81.7,73.8,30.07,SW,224,0.0,3.0,77,0.00,,,0.00,Wunderground v.1.15,2013-05-10 23:09:00,
2013-05-10 19:14:00,81.7,74.2,30.07,ESE,118,0.0,2.0,78,0.00,,,0.00,Wunderground v.1.15,2013-05-10 23:14:00,
2013-05-10 19:19:00,81.6,73.7,30.07,SE,127,0.0,2.0,77,0.00,,,0.00,Wunderground v.1.15,2013-05-10 23:19:00,
2013-05-10 19:24:00,81.6,74.1,30.07,East,89,0.0,1.0,78,0.00,,,0.00,Wunderground v.1.15,2013-05-10 23:24:00,
2013-05-10 19:29:00,81.6,74.1,30.06,East,94,0.0,3.0,78,0.00,,,0.00,Wunderground v.1.15,2013-05-10 23:29:00,
2013-05-10 19:34:00,81.5,74.4,30.06,South,173,0.0,3.0,79,0.00,,,0.00,Wunderground v.1.15,2013-05-10 23:34:00,
2013-05-10 19:39:00,81.4,74.3,30.07,East,98,1.0,3.0,79,0.00,,,0.00,Wunderground v.1.15,2013-05-10 23:39:00,
2013-05-10 19:44:00,81.3,74.2,30.06,SE,132,1.0,4.0,79,0.00,,,0.00,Wunderground v.1.15,2013-05-10 23:44:00,
2013-05-10 19:49:00,81.1,74.0,30.06,NE,51,0.0,4.0,79,0.00,,,0.00,Wunderground v.1.15,2013-05-10 23:49:00,
2013-05-10 19:54:00,81.0,73.9,30.06,ESE,115,1.0,3.0,79,0.00,,,0.00,Wunderground v.1.15,2013-05-10 23:54:00,
2013-05-10 19:59:00,80.9,73.8,30.06,ESE,118,0.0,4.0,79,0.00,,,0.00,Wunderground v.1.15,2013-05-10 23:59:00,
2013-05-10 20:04:00,80.7,73.6,30.06,South,174,0.0,2.0,79,0.00,,,0.00,Wunderground v.1.15,2013-05-11 00:04:00,
2013-05-10 20:09:00,80.6,73.5,30.06,SE,143,0.0,2.0,79,0.00,,,0.00,Wunderground v.1.15,2013-05-11 00:09:00,
2013-05-10 20:14:00,80.6,73.9,30.07,NE,53,0.0,3.0,80,0.00,,,0.00,Wunderground v.1.15,2013-05-11 00:14:00,
2013-05-10 20:19:00,80.5,73.8,30.07,ESE,122,1.0,3.0,80,0.00,,,0.00,Wunderground v.1.15,2013-05-11 00:19:00,
2013-05-10 20:24:00,80.3,73.2,30.07,ESE,106,0.0,4.0,79,0.00,,,0.00,Wunderground v.1.15,2013-05-11 00:24:00,
2013-05-10 20:29:00,80.3,73.6,30.08,SE,136,0.0,4.0,80,0.00,,,0.00,Wunderground v.1.15,2013-05-11 00:29:00,
2013-05-10 20:34:00,80.2,73.5,30.08,SE,136,0.0,0.0,80,0.00,,,0.00,Wunderground v.1.15,2013-05-11 00:34:00,
2013-05-10 20:39:00,80.0,73.3,30.08,East,99,0.0,2.0,80,0.00,,,0.00,Wunderground v.1.15,2013-05-11 00:39:00,
2013-05-10 20:44:00,79.9,73.2,30.08,ESE,108,0.0,1.0,80,0.00,,,0.00,Wunderground v.1.15,2013-05-11 00:44:00,
2013-05-10 20:49:00,79.8,73.1,30.08,ESE,108,0.0,1.0,80,0.00,,,0.00,Wunderground v.1.15,2013-05-11 00:49:00,
2013-05-10 20:54:00,79.8,73.1,30.09,East,98,0.0,1.0,80,0.00,,,0.00,Wunderground v.1.15,2013-05-11 00:54:00,
2013-05-10 20:59:00,79.9,73.2,30.08,ESE,117,0.0,1.0,80,0.00,,,0.00,Wunderground v.1.15,2013-05-11 00:59:00,
2013-05-10 21:04:00,79.9,72.8,30.09,ESE,117,0.0,2.0,79,0.00,,,0.00,Wunderground v.1.15,2013-05-11 01:04:00,
2013-05-10 21:09:00,79.9,72.8,30.08,ESE,122,0.0,3.0,79,0.00,,,0.00,Wunderground v.1.15,2013-05-11 01:09:00,
2013-05-10 21:14:00,79.9,73.2,30.09,NE,52,2.0,2.0,80,0.00,,,0.00,Wunderground v.1.15,2013-05-11 01:14:00,
2013-05-10 21:19:00,79.8,73.1,30.08,SW,219,0.0,2.0,80,0.00,,,0.00,Wunderground v.1.15,2013-05-11 01:19:00,
2013-05-10 21:24:00,79.8,73.4,30.09,ESE,104,0.0,3.0,81,0.00,,,0.00,Wunderground v.1.15,2013-05-11 01:24:00,
2013-05-10 21:29:00,79.7,73.3,30.08,ESE,117,0.0,3.0,81,0.00,,,0.00,Wunderground v.1.15,2013-05-11 01:29:00,
2013-05-10 21:34:00,79.7,73.3,30.09,South,176,0.0,3.0,81,0.00,,,0.00,Wunderground v.1.15,2013-05-11 01:34:00,
2013-05-10 21:39:00,79.6,73.6,30.09,SE,142,0.0,3.0,82,0.00,,,0.00,Wunderground v.1.15,2013-05-11 01:39:00,
2013-05-10 21:44:00,79.4,73.8,30.09,East,101,0.0,1.0,83,0.00,,,0.00,Wunderground v.1.15,2013-05-11 01:44:00,
2013-05-10 21:49:00,79.4,73.8,30.08,South,174,1.0,2.0,83,0.00,,,0.00,Wunderground v.1.15,2013-05-11 01:49:00,
2013-05-10 21:54:00,79.3,74.0,30.09,ESE,112,0.0,1.0,84,0.00,,,0.00,Wunderground v.1.15,2013-05-11 01:54:00,
2013-05-10 21:59:00,79.3,74.0,30.08,South,173,1.0,2.0,84,0.00,,,0.00,Wunderground v.1.15,2013-05-11 01:59:00,
2013-05-10 22:04:00,79.2,73.9,30.08,South,177,1.0,3.0,84,0.00,,,0.00,Wunderground v.1.15,2013-05-11 02:04:00,
2013-05-10 22:09:00,79.1,73.8,30.08,SE,128,0.0,3.0,84,0.00,,,0.00,Wunderground v.1.15,2013-05-11 02:09:00,
2013-05-10 22:14:00,79.0,74.1,30.07,SW,231,0.0,2.0,85,0.00,,,0.00,Wunderground v.1.15,2013-05-11 02:14:00,
2013-05-10 22:19:00,78.9,74.0,30.07,SSW,211,0.0,5.0,85,0.00,,,0.00,Wunderground v.1.15,2013-05-11 02:19:00,
2013-05-10 22:24:00,78.8,73.9,30.08,SE,143,0.0,2.0,85,0.00,,,0.00,Wunderground v.1.15,2013-05-11 02:24:00,
2013-05-10 22:29:00,78.8,73.9,30.08,South,174,1.0,2.0,85,0.00,,,0.00,Wunderground v.1.15,2013-05-11 02:29:00,
2013-05-10 22:34:00,78.7,74.2,30.08,SSE,148,0.0,2.0,86,0.00,,,0.00,Wunderground v.1.15,2013-05-11 02:34:00,
2013-05-10 22:39:00,78.7,74.2,30.08,SE,127,0.0,4.0,86,0.00,,,0.00,Wunderground v.1.15,2013-05-11 02:39:00,
2013-05-10 22:44:00,78.7,74.2,30.08,South,188,0.0,4.0,86,0.00,,,0.00,Wunderground v.1.15,2013-05-11 02:44:00,
2013-05-10 22:49:00,78.6,74.1,30.08,SE,144,0.0,4.0,86,0.00,,,0.00,Wunderground v.1.15,2013-05-11 02:49:00,
2013-05-10 22:54:00,78.6,74.1,30.08,SW,224,2.0,3.0,86,0.00,,,0.00,Wunderground v.1.15,2013-05-11 02:54:00,
2013-05-10 23:00:00,78.6,74.1,30.08,ESE,108,0.0,0.0,86,0.00,,,0.00,Wunderground v.1.15,2013-05-11 03:00:00,
2013-05-10 23:05:00,78.5,74.0,30.08,South,186,0.0,1.0,86,0.00,,,0.00,Wunderground v.1.15,2013-05-11 03:05:00,
2013-05-10 23:10:00,78.5,74.0,30.08,SE,146,0.0,0.0,86,0.00,,,0.00,Wunderground v.1.15,2013-05-11 03:10:00,
2013-05-10 23:15:00,78.4,73.9,30.08,SE,143,0.0,2.0,86,0.00,,,0.00,Wunderground v.1.15,2013-05-11 03:15:00,
2013-05-10 23:20:00,78.3,73.8,30.08,SE,139,0.0,0.0,86,0.00,,,0.00,Wunderground v.1.15,2013-05-11 03:20:00,
2013-05-10 23:25:00,78.3,73.8,30.08,SE,143,0.0,1.0,86,0.00,,,0.00,Wunderground v.1.15,2013-05-11 03:25:00,
2013-05-10 23:30:00,78.1,73.6,30.08,SE,137,0.0,0.0,86,0.00,,,0.00,Wunderground v.1.15,2013-05-11 03:30:00,
2013-05-10 23:35:00,78.1,73.9,30.08,ESE,108,0.0,2.0,87,0.00,,,0.00,Wunderground v.1.15,2013-05-11 03:35:00,
2013-05-10 23:40:00,78.1,73.9,30.08,SSE,166,0.0,0.0,87,0.00,,,0.00,Wunderground v.1.15,2013-05-11 03:40:00,
2013-05-10 23:45:00,78.0,73.8,30.08,South,177,0.0,0.0,87,0.00,,,0.00,Wunderground v.1.15,2013-05-11 03:45:00,
2013-05-10 23:50:00,77.9,73.7,30.09,SE,135,0.0,0.0,87,0.00,,,0.00,Wunderground v.1.15,2013-05-11 03:50:00,
2013-05-10 23:55:00,77.8,73.6,30.09,SE,137,0.0,1.0,87,0.00,,,0.00,Wunderground v.1.15,2013-05-11 03:55:00,